GW7444 Weather Reports


time (UTC)temp
F
wind
direction
speed
knots
gust
knots
rain 1hr
in
rain 24hr
in
rain mn
in
humidity
%
barometer
mb
20260831152028 75 105 0.0 0.9 0.00 0.00 0.00 91 1020.3
20260831151548 75 101 0.0 0.9 0.00 0.00 0.00 91 1020.3
20260831151029 75 101 0.0 0.9 0.00 0.00 0.00 91 1020.4
20260831150529 75 0 0.0 0.9 0.00 0.00 0.00 91 1020.3
20260831150047 75 0 0.0 0.9 0.00 0.00 0.00 91 1020.3
20260831145529 75 101 0.0 0.9 0.00 0.00 0.00 91 1020.3
20260831145032 74 0 0.0 0.9 0.00 0.00 0.00 91 1020.3
20260831144552 74 0 0.0 0.9 0.00 0.00 0.00 91 1020.2
20260831144028 74 0 0.0 0.0 0.00 0.00 0.00 92 1020.2
20260831143531 73 0 0.0 0.9 0.00 0.00 0.00 93 1020.1
20260831143048 73 0 0.0 3.5 0.00 0.00 0.00 94 1020.2
20260831142526 73 101 0.9 3.5 0.00 0.00 0.00 93 1020.1
20260831142027 73 101 0.9 3.5 0.00 0.00 0.00 93 1020.1
20260831141552 73 0 0.0 1.7 0.00 0.00 0.00 93 1019.9
20260831141029 73 0 0.0 1.7 0.00 0.00 0.00 94 1020.0
20260831140533 73 97 0.0 2.6 0.00 0.00 0.00 93 1019.9
20260831140051 72 0 0.0 2.6 0.00 0.00 0.00 93 1019.9
20260831135528 73 96 1.7 2.6 0.00 0.00 0.00 93 1019.9
20260831135033 73 96 0.9 2.6 0.00 0.00 0.00 93 1019.9
20260831134553 73 94 1.7 2.6 0.00 0.00 0.00 93 1019.9
20260831134030 73 103 0.9 3.5 0.00 0.00 0.00 93 1020.0
20260831133528 73 101 0.0 4.3 0.00 0.00 0.00 93 1020.1
20260831133102 73 146 1.7 4.3 0.00 0.00 0.00 93 1020.1
20260831132529 73 104 0.9 3.5 0.00 0.00 0.00 93 1020.0
20260831132029 73 96 2.6 3.5 0.00 0.00 0.00 93 1020.0
20260831131557 73 98 0.9 4.3 0.00 0.00 0.00 94 1019.9
20260831131027 72 132 1.7 4.3 0.00 0.00 0.00 95 1019.9
20260831130527 72 98 1.7 3.5 0.00 0.00 0.00 96 1019.8
20260831130047 71 96 1.7 3.5 0.00 0.00 0.00 95 1019.9
20260831125528 71 99 0.9 1.7 0.00 0.00 0.00 97 1019.9
20260831125031 71 99 0.9 1.7 0.00 0.00 0.00 97 1019.9
20260831124543 70 114 0.9 1.7 0.00 0.00 0.00 97 1019.9
20260831124031 70 114 1.7 1.7 0.00 0.00 0.00 97 1020.0
20260831123528 70 110 0.9 1.7 0.00 0.00 0.00 97 1020.1
20260831123052 70 110 0.9 1.7 0.00 0.00 0.00 97 1020.1
20260831122532 70 110 0.0 0.9 0.00 0.00 0.00 97 1020.1
20260831122029 70 0 0.0 0.0 0.00 0.00 0.00 97 1020.1
20260831121546 70 0 0.0 0.0 0.00 0.00 0.00 97 1020.1
20260831121027 70 0 0.0 0.0 0.00 0.00 0.00 97 1020.0
20260831120527 69 0 0.0 0.0 0.00 0.00 0.00 97 1020.0
20260831120047 69 0 0.0 0.9 0.00 0.00 0.00 97 1019.9
20260831115529 69 0 0.0 1.7 0.00 0.00 0.00 97 1019.9
20260831115028 69 110 0.0 1.7 0.00 0.00 0.00 97 1019.9
20260831114553 69 110 0.9 1.7 0.00 0.00 0.00 97 1019.8
20260831114028 69 110 1.7 1.7 0.00 0.00 0.00 97 1019.8
20260831113530 69 110 0.9 1.7 0.00 0.00 0.00 97 1019.8
20260831113102 69 110 0.9 1.7 0.00 0.00 0.00 97 1019.8
20260831112529 69 110 0.9 2.6 0.00 0.00 0.00 97 1019.7
20260831112029 69 110 0.9 2.6 0.00 0.00 0.00 97 1019.6
20260831111547 69 110 0.9 2.6 0.00 0.00 0.00 97 1019.6
20260831111031 69 0 0.0 0.0 0.00 0.00 0.00 97 1019.6
20260831110529 69 0 0.0 0.0 0.00 0.00 0.00 97 1019.5
20260831110045 69 0 0.0 0.0 0.00 0.00 0.00 97 1019.5
20260831105533 69 0 0.0 0.0 0.00 0.00 0.00 97 1019.5
20260831105029 69 0 0.0 0.9 0.00 0.00 0.00 97 1019.4
20260831104551 69 0 0.0 0.9 0.00 0.00 0.00 97 1019.4
20260831104030 69 102 0.0 0.9 0.00 0.00 0.00 97 1019.4
20260831103528 69 0 0.0 1.7 0.00 0.00 0.00 96 1019.4
20260831103052 69 0 0.0 1.7 0.00 0.00 0.00 96 1019.3
20260831102528 69 0 0.0 2.6 0.00 0.00 0.00 96 1019.3
20260831102029 69 100 0.9 2.6 0.00 0.00 0.00 96 1019.3
20260831101548 69 0 0.0 1.7 0.00 0.00 0.00 96 1019.2
20260831101027 70 103 0.9 2.6 0.00 0.00 0.00 96 1019.3
20260831100530 70 103 0.9 2.6 0.00 0.00 0.00 96 1019.2
20260831100047 70 103 0.9 2.6 0.00 0.00 0.00 96 1019.2
20260831095528 70 100 0.9 2.6 0.00 0.00 0.00 96 1019.2
20260831095028 70 98 0.9 2.6 0.00 0.00 0.00 96 1019.2
20260831094557 69 98 0.9 1.7 0.00 0.00 0.00 96 1019.2
20260831094028 69 0 0.0 0.0 0.00 0.00 0.00 96 1019.2
20260831093530 69 0 0.0 0.0 0.00 0.00 0.00 96 1019.2
20260831093136 69 0 0.0 0.0 0.00 0.00 0.00 96 1019.1
20260831092533 69 0 0.0 0.0 0.00 0.00 0.00 96 1019.1
20260831092026 69 0 0.0 0.9 0.00 0.00 0.00 96 1019.1
20260831091549 69 0 0.0 1.7 0.00 0.00 0.00 95 1019.1
20260831091031 70 0 0.0 2.6 0.00 0.00 0.00 95 1019.1
20260831090529 70 109 0.9 2.6 0.00 0.00 0.00 95 1019.2
20260831090046 70 109 0.9 2.6 0.00 0.00 0.00 95 1019.2
20260831085530 70 108 1.7 2.6 0.00 0.00 0.00 95 1019.3
20260831085032 70 119 1.7 2.6 0.00 0.00 0.00 95 1019.3
20260831084628 70 105 0.9 1.7 0.00 0.00 0.00 95 1019.3
20260831084028 70 105 0.0 2.6 0.00 0.00 0.00 95 1019.4
20260831083530 70 113 0.9 2.6 0.00 0.00 0.00 95 1019.3
20260831083050 70 113 0.9 2.6 0.00 0.00 0.00 95 1019.3
20260831082527 70 109 0.0 1.7 0.00 0.00 0.00 95 1019.4
20260831082031 70 109 0.0 1.7 0.00 0.00 0.00 95 1019.4
20260831081547 70 0 0.0 2.6 0.00 0.00 0.00 95 1019.4
20260831081029 70 115 0.9 3.5 0.00 0.00 0.00 95 1019.4
20260831080529 70 103 1.7 5.2 0.00 0.00 0.00 95 1019.3
20260831080106 70 136 2.6 5.2 0.00 0.00 0.00 95 1019.3
20260831075528 70 137 2.6 5.2 0.00 0.00 0.00 95 1019.2
20260831075028 70 144 2.6 5.2 0.00 0.00 0.00 95 1019.2
20260831074548 70 153 2.6 5.2 0.00 0.00 0.00 95 1019.2
20260831074029 70 143 1.7 3.5 0.00 0.00 0.00 95 1019.1
20260831073527 70 91 1.7 3.5 0.00 0.00 0.00 95 1019.2
20260831073046 70 96 1.7 3.5 0.00 0.00 0.00 95 1019.2
20260831072528 70 96 1.7 3.5 0.00 0.00 0.00 95 1019.1
20260831072028 70 97 1.7 2.6 0.00 0.00 0.00 95 1019.2
20260831071548 70 110 0.9 1.7 0.00 0.00 0.00 95 1019.3
20260831071029 69 109 0.9 1.7 0.00 0.00 0.00 95 1019.3
20260831070528 69 108 0.0 1.7 0.00 0.00 0.00 95 1019.4
20260831070046 70 108 0.0 2.6 0.00 0.00 0.00 95 1019.4
20260831065533 70 113 1.7 2.6 0.00 0.00 0.00 95 1019.4
20260831065030 70 120 1.7 2.6 0.00 0.00 0.00 95 1019.3
20260831064556 69 101 0.0 2.6 0.00 0.00 0.00 94 1019.4
20260831064027 69 101 0.9 2.6 0.00 0.00 0.00 94 1019.5
20260831063528 70 101 1.7 2.6 0.00 0.00 0.00 94 1019.4
20260831063102 70 108 0.0 2.6 0.00 0.00 0.00 94 1019.5
20260831062528 70 103 0.9 2.6 0.00 0.00 0.00 94 1019.5
20260831062031 70 103 0.0 2.6 0.00 0.00 0.00 93 1019.5
20260831061547 70 103 0.9 2.6 0.00 0.00 0.00 92 1019.6
20260831061027 70 134 1.7 2.6 0.00 0.00 0.00 92 1019.7
20260831060529 70 134 1.7 3.5 0.00 0.00 0.00 92 1019.7
20260831060056 70 136 1.7 3.5 0.00 0.00 0.00 92 1019.7
20260831055528 70 138 1.7 3.5 0.00 0.00 0.00 92 1019.8
20260831055028 70 136 1.7 3.5 0.00 0.00 0.00 92 1019.8
20260831054551 70 143 1.7 2.6 0.00 0.00 0.00 92 1019.9
20260831054029 70 114 1.7 3.5 0.00 0.00 0.00 92 1020.0
20260831053528 70 113 1.7 3.5 0.00 0.00 0.00 92 1020.0
20260831053058 69 109 0.9 1.7 0.00 0.00 0.00 93 1019.9
20260831052528 69 108 0.0 0.9 0.00 0.00 0.00 93 1019.9
20260831052028 69 108 0.0 0.9 0.00 0.00 0.00 93 1020.0
20260831051551 70 0 0.0 0.0 0.00 0.00 0.00 92 1019.9
20260831051027 70 0 0.0 0.0 0.00 0.00 0.00 92 1019.9
20260831050531 70 0 0.0 0.0 0.00 0.00 0.00 92 1019.9
20260831050048 70 0 0.0 0.9 0.00 0.00 0.00 91 1019.9
20260831045528 71 0 0.0 0.9 0.00 0.00 0.00 91 1020.0
20260831045028 71 0 0.0 0.0 0.00 0.00 0.00 91 1020.0
20260831044546 71 0 0.0 0.0 0.00 0.00 0.00 90 1019.9
20260831044028 71 0 0.0 0.0 0.00 0.00 0.00 91 1020.1
20260831043527 71 0 0.0 0.0 0.00 0.00 0.00 91 1020.1
20260831043049 71 0 0.0 0.0 0.00 0.00 0.00 90 1020.1
20260831042528 71 0 0.0 0.0 0.00 0.00 0.00 89 1020.0
20260831042029 71 0 0.0 0.0 0.00 0.00 0.00 89 1020.0
20260831041550 71 0 0.0 0.0 0.00 0.00 0.00 89 1019.9
20260831041028 71 0 0.0 0.0 0.00 0.00 0.00 89 1019.9
20260831040528 71 0 0.0 0.0 0.00 0.00 0.00 89 1020.0
20260831040045 72 0 0.0 0.0 0.00 0.00 0.00 88 1020.1
20260831035528 72 0 0.0 0.0 0.00 0.00 0.00 88 1020.0
20260831035029 72 0 0.0 0.9 0.00 0.00 0.00 88 1020.0
20260831034601 72 0 0.0 1.7 0.00 0.00 0.00 88 1020.1
20260831034026 72 113 0.9 2.6 0.00 0.00 0.00 89 1020.2
20260831033527 72 113 0.9 2.6 0.00 0.00 0.00 89 1020.1
20260831033058 72 113 0.9 2.6 0.00 0.00 0.00 89 1020.2
20260831032527 71 113 1.7 3.5 0.00 0.00 0.00 89 1020.3
20260831032025 71 123 1.7 3.5 0.00 0.00 0.00 89 1020.3
20260831031545 71 122 1.7 3.5 0.00 0.00 0.00 90 1020.4
20260831031027 71 115 1.7 2.6 0.00 0.00 0.00 90 1020.5
20260831030529 71 117 1.7 3.5 0.00 0.00 0.00 90 1020.5
20260831030056 71 115 1.7 3.5 0.00 0.00 0.00 90 1020.6
20260831025529 71 110 1.7 3.5 0.00 0.00 0.00 89 1020.7
20260831025031 72 120 1.7 3.5 0.00 0.00 0.00 89 1020.7
20260831024559 72 114 1.7 3.5 0.00 0.00 0.00 89 1020.8
20260831024028 72 115 1.7 2.6 0.00 0.00 0.00 90 1020.7
20260831023526 72 117 1.7 2.6 0.00 0.00 0.00 89 1020.8
20260831023050 72 117 1.7 1.7 0.00 0.00 0.00 89 1020.7
20260831022529 72 114 0.9 1.7 0.00 0.00 0.00 88 1020.8
20260831022028 72 114 0.9 1.7 0.00 0.00 0.00 89 1020.9
20260831021555 72 114 0.9 1.7 0.00 0.00 0.00 89 1020.8
20260831021028 72 114 0.9 1.7 0.00 0.00 0.00 90 1020.8
20260831020531 72 114 0.9 1.7 0.00 0.00 0.00 91 1020.8
20260831020056 72 0 0.0 0.9 0.00 0.00 0.00 90 1020.9
20260831015528 72 0 0.0 0.9 0.00 0.00 0.00 90 1020.9
20260831015028 72 0 0.0 0.9 0.00 0.00 0.00 90 1020.9
20260831014547 71 0 0.0 1.7 0.00 0.00 0.00 91 1020.8
20260831014028 71 114 0.9 1.7 0.00 0.00 0.00 92 1020.8
20260831013531 71 110 1.7 1.7 0.00 0.00 0.00 92 1020.8
20260831013048 72 110 0.9 1.7 0.00 0.00 0.00 91 1020.9
20260831012527 72 110 0.0 2.6 0.00 0.00 0.00 91 1020.9
20260831012029 72 0 0.9 2.6 0.00 0.00 0.00 91 1020.9
20260831011553 72 110 1.7 2.6 0.00 0.00 0.00 91 1020.9
20260831011028 72 110 0.9 1.7 0.00 0.00 0.00 91 1020.8
20260831010529 72 110 1.7 1.7 0.00 0.00 0.00 90 1020.7
20260831010051 72 110 0.0 0.0 0.00 0.00 0.00 89 1020.6
20260831005529 73 0 0.0 0.0 0.00 0.00 0.00 87 1020.4
20260831005029 73 0 0.0 0.0 0.00 0.00 0.00 86 1020.4
20260831004554 73 0 0.0 0.0 0.00 0.00 0.00 86 1020.1
20260831004029 73 0 0.0 0.0 0.00 0.00 0.00 86 1019.9
20260831003528 73 0 0.0 0.0 0.00 0.00 0.00 87 1019.8
20260831003050 73 0 0.0 0.0 0.00 0.00 0.00 85 1019.7
20260831002527 73 0 0.0 0.0 0.00 0.00 0.00 86 1019.6
20260831002031 73 0 0.0 0.0 0.00 0.00 0.00 87 1019.5
20260831001545 73 0 0.0 0.0 0.00 0.00 0.00 87 1019.4
20260831001028 73 0 0.0 0.0 0.00 0.00 0.00 87 1019.4
20260831000529 73 0 0.0 0.0 0.00 0.00 0.00 86 1019.4
20260831000045 73 0 0.0 0.0 0.00 0.00 0.00 86 1019.4
20260830235529 74 0 0.0 0.9 0.00 0.00 0.00 85 1019.3
20260830235028 74 0 0.0 1.7 0.00 0.00 0.00 83 1019.3
20260830234551 75 0 0.0 1.7 0.00 0.00 0.00 81 1019.3
20260830234028 74 110 0.9 1.7 0.00 0.00 0.00 81 1019.3
20260830233527 74 110 0.9 1.7 0.00 0.00 0.00 84 1019.3
20260830233057 74 110 0.9 1.7 0.00 0.00 0.00 84 1019.2
20260830232530 75 110 0.0 0.9 0.00 0.00 0.00 83 1019.2
20260830232029 75 0 0.9 1.7 0.00 0.00 0.00 82 1019.1
20260830231547 75 110 0.9 1.7 0.00 0.00 0.00 81 1019.0
20260830231029 76 110 0.9 1.7 0.00 0.00 0.00 80 1018.8
20260830230527 76 110 0.0 1.7 0.00 0.00 0.00 80 1018.9
20260830230046 76 110 0.9 1.7 0.00 0.00 0.00 80 1018.9
20260830225530 76 101 0.9 3.5 0.00 0.00 0.00 80 1018.8
20260830225029 76 99 1.7 3.5 0.00 0.00 0.00 81 1018.9
20260830224548 75 98 1.7 1.7 0.00 0.00 0.00 78 1019.0
20260830224028 75 99 0.0 3.5 0.00 0.00 0.00 83 1018.8
20260830223529 75 0 0.9 3.5 0.00 0.00 0.00 83 1018.6
20260830223045 75 139 2.6 3.5 0.00 0.00 0.00 87 1018.3
20260830222528 76 134 2.6 3.5 0.00 0.00 0.00 84 1018.7
20260830222028 76 112 0.9 1.7 0.00 0.00 0.00 83 1018.8
20260830221544 77 0 0.0 0.0 0.00 0.00 0.00 80 1018.8
20260830221027 78 0 0.0 0.0 0.00 0.00 0.00 78 1018.9
20260830220528 79 0 0.0 0.0 0.00 0.00 0.00 73 1019.0
20260830220045 79 0 0.0 0.0 0.00 0.00 0.00 75 1019.0
20260830215528 79 0 0.0 0.0 0.00 0.00 0.00 76 1019.0
20260830215031 79 0 0.0 0.0 0.00 0.00 0.00 73 1018.9
20260830214548 79 0 0.0 0.0 0.00 0.00 0.00 75 1018.9
20260830214029 78 0 0.0 0.0 0.00 0.00 0.00 76 1018.9
20260830213528 78 0 0.0 0.0 0.00 0.00 0.00 76 1018.7
20260830213048 78 0 0.0 2.6 0.00 0.00 0.00 75 1018.7
20260830212530 79 0 0.9 2.6 0.00 0.00 0.00 77 1018.8
20260830212025 79 103 0.9 2.6 0.00 0.00 0.00 71 1018.8
20260830211550 79 103 0.9 2.6 0.00 0.00 0.00 71 1019.2
20260830211029 80 0 0.0 1.7 0.00 0.00 0.00 70 1019.2
20260830210528 80 0 0.0 1.7 0.00 0.00 0.00 71 1019.2
20260830210049 80 103 0.9 1.7 0.00 0.00 0.00 71 1019.2
20260830205528 80 103 0.0 1.7 0.00 0.00 0.00 70 1019.3
20260830205029 80 0 0.0 0.9 0.00 0.00 0.00 71 1019.4
20260830204544 79 0 0.0 5.2 0.00 0.00 0.00 71 1019.5
20260830204028 79 0 0.0 7.0 0.00 0.00 0.00 73 1019.6
20260830203528 79 106 4.3 7.0 0.00 0.00 0.00 70 1019.8
20260830203048 79 107 3.5 7.0 0.00 0.00 0.00 69 1019.8
20260830202529 79 100 2.6 6.1 0.00 0.00 0.00 71 1019.9
20260830202032 79 100 0.9 5.2 0.00 0.00 0.00 71 1019.9
20260830201549 79 105 3.5 5.2 0.00 0.00 0.00 70 1020.0
20260830201028 79 103 3.5 5.2 0.00 0.00 0.00 70 1020.1
20260830200525 80 103 3.5 7.0 0.00 0.00 0.00 70 1020.1
20260830200045 80 103 3.5 8.7 0.00 0.00 0.00 70 1020.1
20260830195528 80 105 5.2 8.7 0.00 0.00 0.00 68 1020.1
20260830195029 80 110 5.2 8.7 0.00 0.00 0.00 68 1020.2
20260830194600 80 101 5.2 7.8 0.00 0.00 0.00 68 1020.3
20260830194027 80 105 4.3 9.6 0.00 0.00 0.00 70 1020.4
20260830193527 80 104 5.2 11.3 0.00 0.00 0.00 70 1020.5
20260830193047 80 109 7.0 13.0 0.00 0.00 0.00 69 1020.6
20260830192525 80 106 7.0 13.0 0.00 0.00 0.00 70 1020.6
20260830192027 80 103 9.6 13.9 0.00 0.00 0.00 68 1020.7
20260830191545 80 106 7.0 13.9 0.00 0.00 0.00 70 1020.7
20260830191027 80 104 9.6 13.9 0.00 0.00 0.00 72 1020.8
20260830190527 80 98 7.8 15.6 0.00 0.00 0.00 71 1020.7
20260830190046 80 103 8.7 15.6 0.00 0.00 0.00 70 1020.8
20260830185528 80 101 7.8 13.9 0.00 0.00 0.00 70 1020.8
20260830185032 81 96 7.0 14.8 0.00 0.00 0.00 67 1020.8
20260830184547 81 104 7.8 18.2 0.00 0.00 0.00 66 1020.9
20260830184028 81 92 7.0 18.2 0.00 0.00 0.00 68 1020.9
20260830183526 81 98 9.6 16.5 0.00 0.00 0.00 66 1020.8
20260830183047 81 101 8.7 15.6 0.00 0.00 0.00 67 1020.8
20260830182530 81 98 6.1 13.0 0.00 0.00 0.00 69 1020.8
20260830182028 81 101 7.8 13.0 0.00 0.00 0.00 68 1020.8
20260830181547 81 101 7.0 13.0 0.00 0.00 0.00 67 1020.8
20260830181024 82 103 7.0 11.3 0.00 0.00 0.00 67 1020.8
20260830180523 82 104 6.1 11.3 0.00 0.00 0.00 67 1020.8
20260830180054 81 100 5.2 8.7 0.00 0.00 0.00 69 1020.9
20260830175524 81 103 6.1 9.6 0.00 0.00 0.00 68 1021.0
20260830175025 81 103 5.2 11.3 0.00 0.00 0.00 69 1021.1
20260830174545 80 100 5.2 11.3 0.00 0.00 0.00 70 1021.1
20260830174027 80 104 6.1 10.4 0.00 0.00 0.00 67 1021.1
20260830173524 81 101 4.3 13.9 0.00 0.00 0.00 69 1021.3
20260830173054 81 99 4.3 13.9 0.00 0.00 0.00 68 1021.3
20260830172527 81 98 5.2 13.9 0.00 0.00 0.00 69 1021.4
20260830172029 81 104 2.6 10.4 0.00 0.00 0.00 70 1021.4
20260830171550 81 102 5.2 10.4 0.00 0.00 0.00 70 1021.5
20260830171026 81 100 6.1 10.4 0.00 0.00 0.00 70 1021.5
20260830170526 81 98 3.5 7.8 0.00 0.00 0.00 70 1021.5
20260830170045 81 98 5.2 7.8 0.00 0.00 0.00 69 1021.6
20260830165524 81 103 3.5 7.8 0.00 0.00 0.00 69 1021.6
20260830165029 81 102 2.6 5.2 0.00 0.00 0.00 71 1021.7
20260830164550 81 98 1.7 7.0 0.00 0.00 0.00 70 1021.7
20260830164025 81 98 2.6 7.0 0.00 0.00 0.00 70 1021.7
20260830163529 81 101 2.6 7.8 0.00 0.00 0.00 70 1021.7
20260830163054 81 103 1.7 7.8 0.00 0.00 0.00 70 1021.7
20260830162525 81 99 2.6 9.6 0.00 0.00 0.00 68 1021.7
20260830162029 81 102 3.5 9.6 0.00 0.00 0.00 69 1021.7
20260830161547 81 98 4.3 8.7 0.00 0.00 0.00 70 1021.7
20260830161028 81 105 2.6 7.8 0.00 0.00 0.00 68 1021.7
20260830160529 81 96 3.5 7.8 0.00 0.00 0.00 70 1021.7
20260830155528 81 96 2.6 7.8 0.00 0.00 0.00 71 1021.8
20260830155030 81 101 1.7 7.0 0.00 0.00 0.00 69 1021.9
20260830154545 80 98 1.7 5.2 0.00 0.00 0.00 73 1021.9
20260830154032 80 93 2.6 4.3 0.00 0.00 0.00 73 1021.9
20260830153528 80 101 1.7 3.5 0.00 0.00 0.00 73 1021.9
20260830153045 80 106 1.7 3.5 0.00 0.00 0.00 74 1021.9
20260830152533 79 101 0.9 3.5 0.00 0.00 0.00 77 1021.9